Location: Detroit
(42.3310°N, 83.0460°W)
Time: 12:46:17
(UTC-05:00)

A-11 Canister half - Visible Passes

Search period start: 07 February 2023 00:00
Search period end: 17 February 2023 00:00
Orbit: 1525 x 1683 km, 47.3° (Epoch: 06 February)

Date Brightness Start Highest point End Pass type
(mag) Time Alt. Az. Time Alt. Az. Time Alt. Az.
07 Feb 11.1 02:27:46 10° ESE 02:27:46 10° ESE 02:27:58 10° ESE visible
07 Feb 9.5 04:26:05 43° S 04:28:06 49° SE 04:36:54 10° ENE visible
07 Feb 9.0 06:24:24 14° WSW 06:32:45 79° NNW 06:42:13 10° ENE visible
08 Feb 9.5 04:05:55 46° SSE 04:06:28 46° SE 04:15:10 10° ENE visible
08 Feb 8.9 06:04:14 21° WSW 06:11:03 81° NNW 06:20:29 10° ENE visible
09 Feb 9.6 03:45:40 43° SE 03:45:40 43° SE 03:53:25 10° ENE visible
09 Feb 8.9 05:43:58 30° WSW 05:49:20 83° NNW 05:58:46 10° ENE visible
10 Feb 9.9 03:25:19 37° ESE 03:25:19 37° ESE 03:31:41 10° ENE visible
10 Feb 8.9 05:23:38 40° WSW 05:27:38 85° NNW 05:37:03 10° ENE visible
11 Feb 10.2 03:04:55 31° E 03:04:55 31° E 03:09:57 10° ENE visible
11 Feb 8.8 05:03:14 53° WSW 05:05:55 87° NNW 05:15:20 10° ENE visible
11 Feb 9.2 07:02:18 10° W 07:11:34 65° N 07:20:57 10° E visible
12 Feb 10.5 02:44:28 24° E 02:44:28 24° E 02:48:12 10° ENE visible
12 Feb 8.7 04:42:46 69° WSW 04:44:14 89° NNW 04:53:37 10° ENE visible
12 Feb 9.2 06:41:04 12° W 06:49:49 65° N 06:59:11 10° E visible
13 Feb 10.7 02:23:58 19° E 02:23:58 19° E 02:26:27 10° ENE visible
13 Feb 8.7 04:22:16 86° SW 04:22:32 89° SSE 04:31:54 10° ENE visible
13 Feb 9.1 06:20:33 17° W 06:28:05 65° N 06:37:26 10° E visible
14 Feb 11.0 02:03:26 14° ENE 02:03:26 14° ENE 02:04:41 10° ENE visible
14 Feb 8.9 04:01:44 76° ENE 04:01:44 76° ENE 04:10:12 10° ENE visible
14 Feb 9.1 06:00:00 23° W 06:06:21 65° N 06:15:41 10° E visible
15 Feb 11.2 01:42:52 10° ENE 01:42:52 10° ENE 01:42:55 10° ENE visible
15 Feb 9.2 03:41:09 61° ENE 03:41:09 61° ENE 03:48:30 10° ENE visible
15 Feb 9.1 05:39:26 30° WNW 05:44:37 66° N 05:53:56 10° ENE visible
16 Feb 9.6 03:20:33 48° ENE 03:20:33 48° ENE 03:26:47 10° ENE visible
16 Feb 9.0 05:18:50 37° WNW 05:22:53 66° N 05:32:12 10° ENE visible
